www.pogodaiklimat.ru

Погода и климат >> Архив погоды >> Казахстан >> Шымкент


АРХИВ ПОГОДЫ в Шымкенте

Время (UTC), дата Ветер
(напр.,м/с)
 
Видим.   Явления Облачность Т
(С)
Тd
(С)
f
(%)
Тe
(С)
Тes
(С)
Комфортность P
(гПа)
Po
(гПа)
Тmin
(С)
Tmax
(С)
R
(мм)
R24
(мм)
S
(см)
21 18.06 З 1 н/о 8/0
[Ac trans Ci ing]
+19.0 +7.1 46 +21 +21 комфорт 1001.9 934.3
00 19.06 В 1 50 км 8/0
[Ci ing]
+18.8 +6.8 46 +20 +20 тепло 1001.9 934.3
03 19.06 штиль 0 50 км 8/0
[Ac trans Ci fib]
+28.7 +9.3 30 +29 +35 жарко 999.7 934.4
06 19.06 ЮЗ 1 50 км 8/3 600 м
[Cu med, cong Ci ing]
+32.9 +6.4 19 +31 +44 жарко 998.6 934.2 +17.4
09 19.06 В 2 50 км в посл. час ливневой дождь 9/6 600 м
[Cb cap Ac trans]
+31.9 +5.3 19 +30 +34 жарко 998.8 934.1
12 19.06 ЮЗ 3
{16}
50 км в посл. час гроза {ливн. осадки} 8/6 600 м
[Cb cap Ac trans]
+29.1 +6.4 24 +28 +29 жарко 1000.7 935.4
15 19.06 В 3
{19}
50 км 8/8 600 м
[Cb cap]
+24.2 +9.0 38 +25 +25 комфорт 1003.8 937.2 +33.6
18 19.06 штиль 0 н/о 10/10 600 м
[Cb cap]
+21.0 +10.9 52 +23 +23 комфорт 1005.0 937.7 +33.6 0.4
21 19.06 З 1 н/о ясно +22.3 +7.0 37 +23 +23 комфорт 1004.3 937.2
00 20.06 штиль 0 50 км 9/9 600 м
[Cb cap]
+18.3 +9.4 56 +19 +19 по сезону 1006.8 938.7
03 20.06 ЮЗ 1 50 км 9/9 600 м
[Cb cap]
+22.8 +12.1 51 +25 +26 комфорт 1007.1 940.1
06 20.06 штиль 0 50 км в посл. час ливневой дождь 8/8 600 м
[Cb cap]
+25.1 +10.2 39 +26 +31 жарко 1007.4 940.8 +18.0
09 20.06 В 2 50 км 6/6 600 м
[Cb cap]
+29.1 +10.0 30 +29 +36 жарко 1005.9 940.3
12 20.06 Ю 2 50 км 6/6 600 м
[Cb cap]
+31.1 +4.8 19 +29 +31 жарко 1005.6 940.3
15 20.06 ЮВ 1 50 км 3/3 600 м
[Cb cap]
+26.5 +3.2 22 +25 +25 комфорт 1007.4 941.0 +31.5
18 20.06 ЮВ 1 н/о ясно +21.5 +3.6 31 +22 +22 комфорт 1010.2 942.5 +31.5 0.0
21 20.06 штиль 0 н/о ясно +18.5 +5.5 42 +19 +19 по сезону 1010.6 942.3
00 21.06 ЮВ 1 50 км ясно +16.0 +5.1 48 +17 +17 по сезону 1011.3 942.3
03 21.06 штиль 0 50 км ясно +25.9 +7.0 30 +26 +35 жарко 1009.9 943.2
06 21.06 ЮЗ 1 50 км 1/1 600 м
[Cu med, cong]
+30.0 +3.8 19 +28 +47 жарко 1008.7 942.9 +13.9
09 21.06 З 1 50 км 3/1 600 м
[Cu med, cong Ci ing]
+31.3 +1.1 14 +28 +46 жарко 1001.7 941.6
12 21.06 З 2 50 км 3/0
[Ci ing]
+31.1 +0.9 14 +28 +33 жарко 1006.5 941.1
15 21.06 50 км 8/0
[Ci ing]
+27.1 0.0 17 1007.7 941.4 +32.3
18 21.06 СЗ 2 н/о ясно +19.2 +6.1 42 +20 +20 прохладно 1009.8 941.6 +32.3
21 21.06 В 2 н/о ясно +17.1 +4.1 42 +17 +17 прохладно 1009.2 940.6
00 22.06 З 2 50 км ясно +17.2 +1.5 35 +18 +18 по сезону 1009.0 940.4
03 22.06 З 1 50 км ясно +26.6 +3.8 23 +25 +33 комфорт 1007.3 940.9
06 22.06 З 1 50 км ясно +31.2 -0.9 13 +28 +49 жарко 1005.6 940.3 +14.6
09 22.06 Ю 1 50 км 3/3 600 м
[Cu med, cong]
+32.7 -0.7 12 +29 +44 жарко 1004.1 939.1
12 22.06 штиль 0 50 км 1/1 600 м
[Cu med, cong]
+33.4 +0.2 12 +30 +37 жарко 1002.9 938.2
15 22.06 штиль 0 50 км 3/0
[Ci ing]
+26.7 +7.7 30 +27 +27 жарко 1004.0 937.9 +33.9
18 22.06 ЮВ 2 н/о 1/0
[Ac trans]
+23.2 +3.8 28 +23 +23 комфорт 1005.0 938.1 +33.9
21 22.06 ЮВ 1 н/о 3/0
[Ci fib]
+23.0 +4.6 30 +23 +23 комфорт 1004.3 937.4
00 23.06 ЮВ 2 50 км 8/3 600 м
[Sc Ac trans]
+24.5 +3.8 26 +24 +24 комфорт 1003.6 937.0
03 23.06 В 1 50 км 9/8 600 м
[Cb cap Ac trans]
+26.5 +8.5 32 +27 +28 жарко 1003.6 937.5
06 23.06 З 1 50 км гроза без осадков {ливн. осадки} 8/8 600 м
[Cb cap]
+26.8 +10.5 36 +28 +32 жарко 1005.2 939.1 +21.8
09 23.06 С 3 50 км гроза без осадков 9/8 600 м
[Cb cap Ac trans]
+25.7 +9.5 36 +26 +28 жарко 1003.2 937.0
12 23.06 В 1 50 км гроза без осадков {ливн. осадки} 9/8 600 м
[Cb cap Ac trans]
+26.3 +11.9 41 +28 +29 жарко 1003.0 937.0
15 23.06 СЗ 2 50 км {гроза} 8/8 600 м
[Cb cap]
+24.7 +10.7 41 +26 +26 жарко 1001.7 935.4 +31.8
18 23.06 СЗ 3 н/о {гроза} 6/3 600 м
[Sc Ac trans]
+21.5 +10.7 50 +23 +23 комфорт 1003.0 935.9 +31.8 0.1
21 23.06 СЗ 3 н/о 10/10 600 м
[Cb cap]
+21.7 +10.9 50 +24 +24 комфорт 1003.4 936.4
00 24.06 СЗ 4 20 км {ливн. осадки} 10/10 600 м
[Cb cap]
+18.7 +12.8 69 +19 +19 по сезону 1003.5 935.8
03 24.06 З 3 20 км 8/6 600 м
[Cb cap Ac trans Ci ing]
+22.4 +11.1 49 +25 +26 комфорт 1003.8 936.9
06 24.06 З 4 50 км пыльный позёмок 8/8 600 м
[Cb cap]
+28.8 +7.3 26 +28 +31 жарко 1001.5 936.0 +17.5 0.5
09 24.06 штиль 0 4000 м гроза, ливневой дождь 8/8 600 м
[Cb cap]
+22.7 +8.0 39 +30 +35 очень
душно
1002.6 936.2
12 24.06 З 1 50 км {гроза, ливн. осадки} 6/4 600 м
[Cb cap Ac trans]
+28.5 +9.8 31 +29 +32 жарко 1002.7 937.1
15 24.06 штиль 0 50 км 4/3 600 м
[Cb cap Ac trans]
+23.6 +9.2 40 +24 +24 комфорт 1006.7 939.8 +30.3
18 24.06 СВ 1 н/о ясно +19.0 +10.0 56 +21 +21 комфорт 1009.2 941.1 +30.3 3
21 24.06 С 3 н/о 3/0
[Ac trans]
+19.0 +7.7 48 +20 +20 по сезону 1008.6 940.5
00 25.06 ЮВ 2 50 км 8/6 600 м
[Sc Ac trans]
+18.6 +6.8 46 +19 +19 по сезону 1008.5 940.4
03 25.06 С 1 50 км 9/4 600 м
[Sc Ac trans]
+24.1 +9.2 39 +25 +27 комфорт 1007.9 941.1
06 25.06 Ю 3 50 км 9/8 600 м
[Cb cap Ac trans]
+24.9 +5.5 29 +25 +27 комфорт 1008.3 941.5 +15.4
09 25.06 З 3 50 км 8/5 600 м
[Cb cap Ac trans]
+28.7 +8.0 27 +28 +33 жарко 1006.2 940.4
12 25.06 Ю 4 50 км {гроза} 6/0
[Ac trans]
+25.9 +7.6 31 +26 +28 жарко 1006.6 940.2
15 25.06 Ю 1 50 км 6/4 600 м
[Cb cap Ac trans]
+23.2 +9.7 42 +25 +25 комфорт 1007.1 940.1 +28.9
18 25.06 ЮЗ 2 н/о 8/4 600 м
[Cb cap Ac trans]
+20.6 +9.2 48 +23 +23 комфорт 1006.9 939.4 +28.9

 

Местоположение метеостанции Шымкент (Южно-Казахстанская область, Казахстан): широта 42.32 долгота 69.70 высота над уровнем моря 604 м.

В архиве по умолчанию представлена погода в Шымкенте за последнюю неделю. Архивные данные за месяц целиком и за предыдущие месяцы, начиная с января 2011 года, Вы можете получить, выбрав интересующий диапазон дат из раскрывающегося списка и нажав кнопку "Ввод!".


*Определитесь, кто Вы:
робот инопланетянин человек

Внимание! Время в таблицах - всемирное. Для получения местного времени необходимо прибавить поправку, которая в Шымкенте равна 6 ч.

Смотрите также архив погоды в соседних городах и на ближайших метеорологических станциях:

Погода в Нурсате (Южно-Казахстанская область, Казахстан) (8 км)
Погода в Тасарыке (Южно-Казахстанская область, Казахстан) (38 км)
Погода в Ауле Турара Рыскулова (Южно-Казахстанская область, Казахстан) (52 км)
Погода в Шуылдаке (Южно-Казахстанская область, Казахстан) (60 км)
Погода в Казыгурте (Южно-Казахстанская область, Казахстан) (67 км)
Погода в Красноярской (Южно-Казахстанская область, Казахстан) (69 км)
Погода в Пскеме (Ташкентская область, Узбекистан) (72 км)
Погода в Арысе (Южно-Казахстанская область, Казахстан) (75 км)
Погода в Бугуни (Южно-Казахстанская область, Казахстан) (75 км)
Погода в Шаяне (Южно-Казахстанская область, Казахстан) (83 км)

Пояснения к столбцам:

Ветер - указаны скорость ветра в м/с - средняя за 10 мин, порывы в срок и между сроками (в фигурных скобках) и направление, откуда дует ветер: С - северный, СВ - северо-восточный, В - восточный, ЮВ - юго-восточный, Ю - южный, ЮЗ - юго-западный, З - западный, СЗ - северо-западный.
Видимость - горизонтальная дальность видимости в метрах или километрах. При видимости от 1 до 10 км при отсутствии осадков обычно наблюдается дымка, при ухудшении видимости до 1 км и менее - туман. В сухую погоду видимость может ухудшаться дымом, пылью или мглою.
Явления - указаны атмосферные явления, наблюдавшиеся в срок или в последний час перед сроком; фигурными скобками обозначены явления, наблюдавшиеся между сроками (за 1-3 часа до срока); квадратными скобками обозначены град или гололедные отложения с указанием их диаметра в мм.
Облачность - указаны через наклонную черту общая и нижняя облачность в баллах и высота нижней границы облаков в метрах; квадратными скобками обозначены формы облаков: Ci - перистые, Cs - перисто-слоистые, Cc - перисто-кучевые, Ac - высококучевые, As - высокослоистые, Sc - слоисто-кучевые, Ns - слоисто-дождевые, Cu - кучевые, Cb - кучево-дождевые. Подробнее классификацию облаков см. в Атласе облаков (PDF).
T - Температура воздуха - температура, измеренная на высоте 2 м над землей.
Td - Температура точки росы - температура, при понижении до которой содержащийся в воздухе водяной пар достигнет насыщения.
f - Относительная влажность воздуха - влажноcть воздуха, измеренная на высоте 2 м над землей.
Te - Эффективная температура - температура, которую ощущает одетый по сезону человек в тени. Характеристика душности погоды. При расчете учитывается влияние влажности воздуха и скорости ветра на теплоощущения человека.
Tes - Эффективная температура на солнце - температура, которую ощущает человек, с поправкой на солнечный нагрев. Характеристика знойности погоды. Зависит от высоты солнца над горизонтом, облачности и скорости ветра. Ночью, в пасмурную погоду, а также при ветре 12 м/с и более поправка равна нулю.
P - Атмосферное давление - приведенное к уровню моря атмосферное давление.
Po - Атмосферное давление - измеренное на уровне метеостанции атмосферное давление.
Tmin - Минимальная температура - минимум температуры воздуха на высоте 2 м над землей.
Tmax - Максимальная температура - максимум температуры воздуха на высоте 2 м над землей.
R - Количество осадков - Количество выпавших осадков за период времени, мм. При наведении курсора мыши на число - период времени, за который выпало указанное количество осадков.
R24 - Количество осадков - Количество выпавших осадков за 24 часа, мм.
S - Снежный покров - Высота снежного покрова, см. При наведении курсора мыши на число - состояние снежного покрова и степень покрытия местности в баллах.